Location: City of Moscow
(46.7306°N, 116.9989°W)
Time: 08:16:56
(UTC+00:00)

USA 234 - Pass Details

Date: 07 March 2026
Orbit: 1102 x 1106 km, 123.0° (Epoch: 4 January)

Event Time Altitude Azimuth Distance (km) Brightness Sun altitude
Exits shadow 02:34:00 11° 82° (E) 2,863 4.8 -9.8°
Maximum altitude 02:39:47 42° 15° (NNE) 1,523 3.9 -10.8°
Drops below altitude 10° 02:45:51 10° 307° (NW) 2,971 6.5 -11.9°
Sets 02:48:28 0° 301° (WNW) 3,931 7.4 -12.3°
